This is the latest recevied weather packets stored in our database for station/object SP1BMW-13. If no packets are shown the sender has not sent any weather packets the latest 10 day(s).
| Time | Temp. | Humidity | Pressure | Rain* | Wind** | Luminosity | Snow |
|---|---|---|---|---|---|---|---|
| 1788010652 | 25° C | 42% | 1009.1 hPa | 0 mm | 1.34 m/s, 347° | 263 W/m² | - |
| 1788010592 | 25° C | 43% | 1009.2 hPa | 0 mm | 1.34 m/s, 135° | 404 W/m² | - |
| 1788010532 | 25.56° C | 42% | 1009.3 hPa | 0 mm | 0 m/s | 179 W/m² | - |
| 1788010472 | 25.56° C | 42% | 1009.2 hPa | 0 mm | 1.79 m/s, 91° | 190 W/m² | - |
| 1788010415 | 25.56° C | 42% | 1009.4 hPa | 0 mm | 1.79 m/s, 255° | 362 W/m² | - |
| 1788010352 | 25.56° C | 42% | 1009.4 hPa | 0 mm | 1.34 m/s, 325° | 281 W/m² | - |
| 1788010293 | 25.56° C | 44% | 1009.4 hPa | 0 mm | 0.45 m/s, 305° | 251 W/m² | - |
| 1788010236 | 25.56° C | 42% | 1009.4 hPa | 0 mm | 0.45 m/s, 329° | 247 W/m² | - |
| 1788010174 | 25.56° C | 42% | 1009.5 hPa | 0 mm | 1.79 m/s, 290° | 263 W/m² | - |
| 1788010113 | 25.56° C | 44% | 1009.5 hPa | 0 mm | 0.45 m/s, 51° | 695 W/m² | - |
| 1788010053 | 25° C | 45% | 1009.3 hPa | 0 mm | 1.34 m/s, 327° | 418 W/m² | - |
| 1788009995 | 25° C | 45% | 1009.4 hPa | 0 mm | 0.89 m/s, 122° | 328 W/m² | - |
| 1788009933 | 25° C | 45% | 1009.3 hPa | 0 mm | 0.89 m/s, 305° | 532 W/m² | - |
| 1788009873 | 25° C | 45% | 1009.5 hPa | 0 mm | 0.89 m/s, 238° | 439 W/m² | - |
| 1788009813 | 25° C | 45% | 1009.4 hPa | 0 mm | 1.79 m/s, 148° | 467 W/m² | - |
| 1788009754 | 24.44° C | 44% | 1009.5 hPa | 0 mm | 1.34 m/s, 268° | 648 W/m² | - |
| 1788009693 | 24.44° C | 45% | 1009.5 hPa | 0 mm | 1.34 m/s, 233° | 677 W/m² | - |
| 1788009634 | 24.44° C | 44% | 1009.4 hPa | 0 mm | 0.89 m/s, 168° | 670 W/m² | - |
| 1788009575 | 25° C | 44% | 1009.4 hPa | 0 mm | 1.34 m/s, 266° | 261 W/m² | - |
| 1788009513 | 25° C | 45% | 1009.6 hPa | 0 mm | 1.34 m/s, 221° | 300 W/m² | - |
| 1788009454 | 25° C | 45% | 1009.5 hPa | 0 mm | 0.45 m/s, 342° | 232 W/m² | - |
| 1788009393 | 25° C | 44% | 1009.6 hPa | 0 mm | 0.89 m/s, 179° | 235 W/m² | - |
| 1788009334 | 25° C | 45% | 1009.6 hPa | 0 mm | 0.45 m/s, 140° | 212 W/m² | - |
| 1788009273 | 25° C | 44% | 1009.6 hPa | 0 mm | 1.79 m/s, 255° | 199 W/m² | - |
| 1788009214 | 25° C | 43% | 1009.4 hPa | 0 mm | 0.45 m/s, 133° | 195 W/m² | - |
* Rain latest hour (hover to see other rain measurements)
** Current wind speed in m/s (hover to see current wind gust speed)